Terug naar catalogus

STARLINK-6109

ActiefCommunicatieVLEO
NORAD 56094·PAYLOAD·🇺🇸 United States

Gelanceerd Mar 29, 2023 vanaf Cape Canaveral Space Force Station

Loading…

Volgende Passages (komende 24 uur)

TLE

VersSource: CelesTrak SupGP

Epoch: Sep 15, 2026, 01:22 UTC

1 56094C 23046B   26258.05743056 -.00014674  00000+0 -53164-3 0  2585
2 56094  42.9996 171.9310 0001023 254.1769 154.8266 15.27577324    13

Volg STARLINK-6109 in realtime met AllMySat

Download on the App Store